Location: Newark
(63.1158°N, 8.1461°E)
Time: 03:27:12
(UTC+00:00)

Envisat - Pass Details

Date: 11 December 2019
Orbit: 764 x 766 km, 98.1° (Epoch: 17 January)

Event Time Altitude Azimuth Distance (km) Brightness Sun altitude
Rises 05:37:06 0° 18° (NNE) 3,251 6.3 -18.5°
Reaches altitude 10° 05:39:39 10° 29° (NNE) 2,320 5.6 -18.3°
Maximum altitude 05:44:14 32° 92° (E) 1,290 4.9 -17.8°
Drops below altitude 10° 05:48:48 10° 156° (SSE) 2,305 6.0 -17.3°
Sets 05:51:19 0° 166° (SSE) 3,227 6.7 -17.0°
